Zurück zum Katalog

STARLINK-37183

AktivKommunikationVLEO
NORAD 68349·PAYLOAD·🇺🇸 United States

Gestartet Mar 22, 2026 von Cape Canaveral Space Force Station

Loading…

Nächste Überflüge (nächste 24 Stunden)

TLE

AktuellSource: CelesTrak SupGP

Epoche: Sep 15, 2026, 03:08 UTC

1 68349C 26059AE  26258.13104167 -.00085609  00000+0 -25283-2 0  2587
2 68349  53.1586 186.4965 0001333  90.8437 342.4289 15.34445984    10

Verfolge STARLINK-37183 in Echtzeit mit AllMySat

Download on the App Store